Regional Weather Roundup
Issued by NWS Newport/Morehead, NC

Current Version | Previous Version | Graphics & Text | Print | Product List | Glossary Off
Versions: 1 2 3 4 5 6 7 8 9 10 11 12 13 14 15 16 17 18 19 20 21 22 23 24 25 26 27 28 29 30 31 32 33 34 35 36 37 38 39 40 41 42 43 44 45 46 47 48 49 50

000
ASUS42 KMHX 241325
RWRMHX
WEATHER ROUNDUP FOR EASTERN NORTH CAROLINA
NATIONAL WEATHER SERVICE NEWPORT/MOREHEAD CITY NC
800 AM EST FRI FEB 24 2017

NOTE: "FAIR" INDICATES FEW OR NO CLOUDS BELOW 12,000 FEET
WITH NO SIGNIFICANT WEATHER AND/OR OBSTRUCTIONS TO VISIBILITY

NCZ015>017-031-032-045>047-102-103-241400-
NORTH COAST

CITY           SKY/WX    TMP DP  RH WIND       PRES   REMARKS
EDENTON        SUNNY     61  58  90 E3        29.96S
ELIZABETH CITY MOSUNNY   60  58  92 SE10      29.96R
KITTY HAWK     NOT AVBL
MANTEO         CLOUDY    62  61  97 E5        29.96R

$$

NCZ045>047-081-094-103-104-241400-
CENTRAL COAST

CITY           SKY/WX    TMP DP  RH WIND       PRES   REMARKS
FRISCO         MOSUNNY   68  62  81 E7        29.94R HAZE

$$

NCZ095-097-098-100-101-241400-
SOUTHERN COAST

CITY           SKY/WX    TMP DP  RH WIND       PRES   REMARKS
BEAUFORT       SUNNY     63  61  93 NE6       29.92R
CEDAR ISLAND   NOT AVBL
JACKSONVILLE   MOSUNNY   63  60  90 NE3       29.92R
PINEY ISLAND   PTSUNNY  N/A N/A N/A NE8       29.93R
WILMINGTON     PTSUNNY   58  58 100 NE5       29.91R


$$

NCZ011>013-027>030-043-044-078>080-089-090>093-098-241400-
COASTAL PLAIN

CITY           SKY/WX    TMP DP  RH WIND       PRES   REMARKS
AHOSKIE          N/A     53  53  97 CALM      29.96R
CLINTON        MOSUNNY   58  58 100 CALM      29.93R
ELIZABETHTOWN  MOSUNNY   56  56 100 CALM      29.93R
GOLDSBORO      SUNNY     56  56 100 CALM      29.91S
GREENVILLE     SUNNY     54  54 100 CALM      29.96R
HAVELOCK       MOSUNNY   60  58  92 NE5       29.93R
KENANSVILLE    SUNNY     57  57 100 CALM      29.93R
KINSTON        SUNNY     55  55 100 CALM      29.94S
NEW BERN       SUNNY     57  57 100 CALM      29.94R
RICHLANDS      CLOUDY    58  58 100 N5        29.92S
ROCKY MOUNT    PTSUNNY   55  55 100 N3        29.95R FOG
WASHINGTON     SUNNY     60  58  94 E3        29.95R
WHITEVILLE     MOSUNNY   58  58  97 NE5       29.92R

$$

AMZ130-135-150-152-154-156-158-170-250-252-270-ANZ085-086-088-633-658-670-241400-
MARINE OBSERVATIONS

STATION/POSITION TIME  TEMP    WIND        PRES    WAVE   SWELL
                       AIR SEA DIR/SP/G            HT/PER HT/PER
                 (UTC) (F)     (DEG/KT/KT) (MB)    (FT/S) (FT/S)
CHESAPEAKE LIGHT NOT AVBL
64 E VA BEACH    1250   62 54  120/  4/  6 1014.7    5/12   5/12
DUCK             1300   58 49  120/  5/  7 1014.0
2 E DUCK         1300      51                N/A     4/12   2/12
OREGON INLET     1300   61 56   40/  6/  7 1014.2
13E OREGON INLT  NOT AVBL
HATTERAS CG      1300   63 62   60/  5/  6 1013.4
DIAMOND BUOY     1250   66 73  110/ 17/ 19 1013.7    8/10   5/10
CAPE LOOKOUT     1300   64      20/  8/ 10 1012.6
BEAUFORT LAB     1300   62 62   30/  5/  8 1012.2
30 SE NEW RVR IN 1308   65      40/ 12/ 16 1012.7
30 SE NEW RVR IN 1313      70                N/A     8/11   5/11
27 SE WRIGHTSVLE 1308   67 66   60/ 10/ 16 1011.7
5 SE WRIGHTSVLE  1308   60 58   20/  6/ 12 1012.5
225 S CAPE HAT   1250   68 70   60/ 25/ 29 1007.1   13/ 9
41 SE CHARLESTON 1250   70 70   70/ 10/ 12 1010.4   10/11  10/11

$$




USA.gov is the U.S. government's official web portal to all federal, state and local government web resources and services.